Piloten Info

Wichtige Hinweise:

  • Tower Frequenz 122,330 kHz - keine Landung ohne Funkkontakt
  • PPR Betrieb
  • Temporäre Hindernisse (Baukräne) nahe dem Flugplatz durch Bauarbeiten entlang der Nürnberger Straße (Östliche Seite).
  • Starts auf RWY 09 sind nicht gestattet. Start generell auf RWY 27. Bei Planung Rückenwinde berücksichtigen!
  • Bei Anflügen auf RWY 27 sind Hindernisse vorhanden, aus diesem Grund die versetzte Schwelle27!
  • Der Flugverein Neumarkt führt seine Starts generell auf RWY 27 und Landungen auf RWY09 durch.
  • Es besteht keine Tankmöglichkeit.

Diese Hinweis sind als Ergänzung / Hilfe zur regulären Flugplanung gedacht.

Auszüge aus AIP VFR ohne Gewähr - es gelten die offiziellen Veröffentlichungen.




Wind Infos (info ohne Gewähr - nicht geeicht)

Wind Speed
Wind Direction


METAR Informationen der nächstgelegenen Flughäfen


EDDN / Flughafen Nürnberg „Albrecht Dürer“

EDDN 182250Z 10006KT 9999 BKN020 03/M01 Q1035

ETIC / Fliegerhorst Grafenwöhr AAF

ETIC 182256Z AUTO 00000KT 9999 OVC014 01/00 A3053 RMK AO2 SLP361 T00130004 FZRANO $

ETIH / Fliegerhorst Hohenfels AAF

ETIH 182256Z AUTO 00000KT 9999 OVC013 01/M00 A3054 RMK AO2 SLP365 T00091004 $